CURTIS

Last updated on Tue Sep 17 2024 00:02:08 GMT+0000 (Coordinated Universal Time)

1 59507U 98067WG 24260.32060784 .04760722 12083-4 10953-2 0 9996 2 59507 51.6052 201.9965 0003028 242.0668 118.0048 16.29177187 24861

Satellite not in orbit